Cape Romanzof LRRS Airport


Codes: PACZ/CZF
Name: Cape Romanzof LRRS Airport
City: Cape Romanzof
Country: United States
Elevation: 464 ft.
Wikipedia:

Photos at Cape Romanzof LRRS Airport


   Photos courtesy of SpottingLog. You can add your own sightings and photos by signing up for a free trial today.



No photos found.

Weather at Cape Romanzof LRRS Airport


Time (UTC)DescriptionTempratureWindCloud coverageVisibilityPressureHumidity
21-Jun-2024 12:00Overcast Clouds8°C7 mph, N100%10000m1016hPa93%
21-Jun-2024 15:00Overcast Clouds7°C7 mph, NW99%10000m1016hPa94%
21-Jun-2024 18:00Overcast Clouds7°C7 mph, N99%2880m1017hPa95%
21-Jun-2024 21:00Overcast Clouds7°C7 mph, NW90%1833m1018hPa93%
22-Jun-2024 00:00Light Rain6°C9 mph, NW92%906m1018hPa95%
22-Jun-2024 03:00Light Rain6°C9 mph, NW97%222m1018hPa97%
22-Jun-2024 06:00Overcast Clouds6°C9 mph, NW98%1990m1019hPa97%
22-Jun-2024 09:00Overcast Clouds5°C9 mph, NW97%2270m1019hPa98%
22-Jun-2024 12:00Overcast Clouds5°C9 mph, NW97%10000m1019hPa94%
22-Jun-2024 15:00Broken Clouds6°C9 mph, NW66%10000m1019hPa89%
22-Jun-2024 18:00Broken Clouds6°C11 mph, NW75%10000m1019hPa86%
22-Jun-2024 21:00Clear Sky6°C11 mph, NW3%10000m1020hPa87%
23-Jun-2024 00:00Few Clouds6°C11 mph, NW13%10000m1019hPa86%
23-Jun-2024 03:00Scattered Clouds6°C11 mph, NW30%10000m1019hPa83%
23-Jun-2024 06:00Scattered Clouds6°C11 mph, NW26%10000m1019hPa82%
23-Jun-2024 09:00Few Clouds5°C11 mph, NW16%10000m1019hPa85%
23-Jun-2024 12:00Few Clouds5°C11 mph, NW15%10000m1018hPa87%
23-Jun-2024 15:00Few Clouds5°C11 mph, NW15%10000m1018hPa88%
23-Jun-2024 18:00Few Clouds6°C11 mph, NW15%10000m1018hPa86%
23-Jun-2024 21:00Few Clouds6°C11 mph, NW16%10000m1018hPa86%
24-Jun-2024 00:00Scattered Clouds6°C11 mph, NW32%10000m1017hPa86%
24-Jun-2024 03:00Scattered Clouds6°C11 mph, NW41%10000m1017hPa88%
24-Jun-2024 06:00Scattered Clouds6°C13 mph, NW36%10000m1016hPa90%
24-Jun-2024 09:00Few Clouds6°C11 mph, NW17%10000m1016hPa91%
24-Jun-2024 12:00Few Clouds5°C13 mph, NW12%10000m1016hPa90%
24-Jun-2024 15:00Clear Sky5°C11 mph, NW3%10000m1016hPa90%
24-Jun-2024 18:00Clear Sky5°C11 mph, NW10%10000m1016hPa86%
24-Jun-2024 21:00Few Clouds6°C11 mph, NW21%10000m1017hPa84%
25-Jun-2024 00:00Few Clouds6°C11 mph, NW21%10000m1017hPa84%
25-Jun-2024 03:00Scattered Clouds6°C11 mph, NW26%10000m1017hPa86%
25-Jun-2024 06:00Scattered Clouds6°C9 mph, NW25%10000m1016hPa87%
25-Jun-2024 09:00Scattered Clouds5°C9 mph, NW41%10000m1017hPa90%
25-Jun-2024 12:00Broken Clouds5°C7 mph, NW54%10000m1016hPa90%
25-Jun-2024 15:00Broken Clouds5°C7 mph, NW74%10000m1016hPa87%
25-Jun-2024 18:00Overcast Clouds6°C4 mph, NW86%10000m1016hPa83%
25-Jun-2024 21:00Overcast Clouds7°C4 mph, NW96%10000m1015hPa80%
26-Jun-2024 00:00Overcast Clouds7°C9 mph, NW98%10000m1015hPa80%
26-Jun-2024 03:00Overcast Clouds7°C11 mph, N100%10000m1014hPa80%
26-Jun-2024 06:00Overcast Clouds7°C13 mph, N100%10000m1013hPa81%
26-Jun-2024 09:00Overcast Clouds8°C16 mph, NE100%10000m1012hPa79%